When you browse on this site, cookies collect data to enhance your experience and personalize the content and advertising you see.
Visit our Privacy Policy to learn more. By continuing to use the site, you agree to this use of cookies and data.
  • în România
  • Lista ţărilor
  • Pe 7 zile
  • Temperatura apei
  • Hartă satelitară
  • Meteo pe hartă
  • Widget-uri
  • user-avatar
    Intrare

    Meteo pe oră la Dolany

    Astăzi, 17 Iunie, Luni

    Timp Temperatura Precipitaţii Vânt Presiune Umiditate
    00:00 +20°C° 0.1 mm 1 m/s 735 mmHg 92%
    01:00 +19°C° 0.1 mm 1 m/s 735 mmHg 92%
    02:00 +19°C° 0.1 mm 1 m/s 735 mmHg 92%
    03:00 +19°C° 0.1 mm 1 m/s 735 mmHg 91%
    04:00 +18°C° 0.1 mm 1 m/s 735 mmHg 91%
    05:00 +19°C° 0 mm 1 m/s 735 mmHg 87%
    06:00 +18°C° 0 mm 2 m/s 736 mmHg 83%
    07:00 +18°C° 0 mm 2 m/s 736 mmHg 79%
    08:00 +19°C° 0 mm 2 m/s 736 mmHg 70%
    09:00 +20°C° 0 mm 2 m/s 736 mmHg 62%
    10:00 +21°C° 0 mm 3 m/s 736 mmHg 53%
    11:00 +23°C° 0 mm 2 m/s 736 mmHg 53%
    12:00 +23°C° 0 mm 2 m/s 736 mmHg 52%
    13:00 +24°C° 0 mm 2 m/s 736 mmHg 52%
    14:00 +24°C° 0 mm 2 m/s 736 mmHg 55%
    15:00 +24°C° 0 mm 2 m/s 736 mmHg 57%
    16:00 +24°C° 0 mm 2 m/s 735 mmHg 60%
    17:00 +23°C° 0 mm 2 m/s 735 mmHg 66%
    18:00 +20°C° 0 mm 2 m/s 735 mmHg 72%
    19:00 +19°C° 0 mm 2 m/s 735 mmHg 78%
    20:00 +20°C° 0 mm 1 m/s 735 mmHg 79%
    21:00 +19°C° 0 mm 1 m/s 735 mmHg 80%
    22:00 +18°C° 0 mm 1 m/s 735 mmHg 82%
    23:00 +18°C° 0 mm 1 m/s 735 mmHg 83%

    Mâine, 18 Iunie, Marţi

    Timp Temperatura Precipitaţii Vânt Presiune Umiditate
    00:00 +18°C° 0 mm 1 m/s 735 mmHg 85%
    01:00 +17°C° 0 mm 2 m/s 735 mmHg 86%
    02:00 +16°C° 0 mm 2 m/s 735 mmHg 89%
    03:00 +16°C° 0 mm 2 m/s 735 mmHg 92%
    04:00 +15°C° 0 mm 2 m/s 734 mmHg 95%
    05:00 +17°C° 0 mm 2 m/s 735 mmHg 92%
    06:00 +18°C° 0 mm 3 m/s 735 mmHg 88%
    07:00 +19°C° 0 mm 3 m/s 735 mmHg 85%
    08:00 +20°C° 0 mm 4 m/s 735 mmHg 81%
    09:00 +21°C° 0 mm 4 m/s 735 mmHg 77%
    10:00 +22°C° 0 mm 4 m/s 735 mmHg 73%
    11:00 +22°C° 0 mm 4 m/s 734 mmHg 73%
    12:00 +22°C° 0 mm 4 m/s 734 mmHg 72%
    13:00 +23°C° 0 mm 5 m/s 734 mmHg 72%
    14:00 +22°C° 0 mm 4 m/s 733 mmHg 75%
    15:00 +22°C° 0 mm 4 m/s 733 mmHg 77%
    16:00 +22°C° 0 mm 4 m/s 733 mmHg 80%
    17:00 +21°C° 0 mm 4 m/s 733 mmHg 83%
    18:00 +21°C° 0 mm 3 m/s 732 mmHg 86%
    19:00 +21°C° 0 mm 3 m/s 732 mmHg 89%
    20:00 +20°C° 0.9 mm 2 m/s 732 mmHg 91%
    21:00 +20°C° 0.9 mm 2 m/s 732 mmHg 93%
    22:00 +19°C° 0.9 mm 2 m/s 732 mmHg 95%
    23:00 +19°C° 0.2 mm 2 m/s 732 mmHg 95%

    Poimâine, 19 Iunie, Miercuri

    Timp Temperatura Precipitaţii Vânt Presiune Umiditate
    00:00 +19°C° 0.2 mm 1 m/s 732 mmHg 95%
    01:00 +19°C° 0.2 mm 1 m/s 731 mmHg 95%
    02:00 +18°C° 0 mm 1 m/s 731 mmHg 95%
    03:00 +18°C° 0 mm 1 m/s 731 mmHg 95%
    04:00 +18°C° 0 mm 1 m/s 731 mmHg 94%
    05:00 +20°C° 0 mm 1 m/s 731 mmHg 90%
    06:00 +21°C° 0 mm 1 m/s 731 mmHg 86%
    07:00 +23°C° 0 mm 1 m/s 731 mmHg 81%
    08:00 +22°C° 0.1 mm 0 m/s 731 mmHg 75%
    09:00 +24°C° 0.1 mm 0 m/s 731 mmHg 68%
    10:00 +26°C° 0.1 mm 0 m/s 731 mmHg 61%
    11:00 +26°C° 0.7 mm 0 m/s 731 mmHg 62%
    12:00 +28°C° 0.7 mm 1 m/s 731 mmHg 62%
    13:00 +28°C° 0.7 mm 1 m/s 731 mmHg 63%
    14:00 +28°C° 0.6 mm 1 m/s 730 mmHg 67%
    15:00 +27°C° 0.6 mm 1 m/s 730 mmHg 71%
    16:00 +26°C° 0.6 mm 1 m/s 730 mmHg 75%
    17:00 +25°C° 0.2 mm 1 m/s 730 mmHg 77%
    18:00 +24°C° 0.2 mm 1 m/s 730 mmHg 79%
    19:00 +24°C° 0.2 mm 1 m/s 729 mmHg 81%
    20:00 +23°C° 0 mm 1 m/s 730 mmHg 81%
    21:00 +22°C° 0 mm 1 m/s 730 mmHg 81%
    22:00 +21°C° 0 mm 1 m/s 730 mmHg 81%
    23:00 +20°C° 0 mm 1 m/s 730 mmHg 81%

    20 Iunie, Joi

    Timp Temperatura Precipitaţii Vânt Presiune Umiditate
    00:00 +20°C° 0 mm 1 m/s 730 mmHg 81%
    01:00 +19°C° 0 mm 1 m/s 729 mmHg 82%
    02:00 +19°C° 0 mm 1 m/s 729 mmHg 81%
    03:00 +19°C° 0 mm 1 m/s 730 mmHg 81%
    04:00 +20°C° 0 mm 1 m/s 730 mmHg 80%
    05:00 +20°C° 0 mm 1 m/s 730 mmHg 79%
    06:00 +21°C° 0 mm 1 m/s 730 mmHg 78%
    07:00 +22°C° 0 mm 1 m/s 730 mmHg 77%
    08:00 +24°C° 0 mm 1 m/s 730 mmHg 70%
    09:00 +26°C° 0 mm 1 m/s 730 mmHg 63%
    10:00 +28°C° 0 mm 1 m/s 731 mmHg 56%
    11:00 +28°C° 0.9 mm 1 m/s 730 mmHg 61%
    12:00 +27°C° 0.9 mm 1 m/s 730 mmHg 65%
    13:00 +27°C° 0.9 mm 2 m/s 730 mmHg 70%
    14:00 +27°C° 0.8 mm 1 m/s 730 mmHg 70%
    15:00 +27°C° 0.8 mm 1 m/s 730 mmHg 71%
    16:00 +27°C° 0.8 mm 1 m/s 730 mmHg 72%
    17:00 +24°C° 0.1 mm 0 m/s 730 mmHg 75%
    18:00 +23°C° 0.1 mm 0 m/s 730 mmHg 77%
    19:00 +22°C° 0.1 mm 0 m/s 730 mmHg 80%
    20:00 +21°C° 0.6 mm 0 m/s 730 mmHg 82%
    21:00 +20°C° 0.6 mm 0 m/s 730 mmHg 84%
    22:00 +21°C° 0.6 mm 1 m/s 730 mmHg 86%
    23:00 +21°C° 0.1 mm 1 m/s 730 mmHg 87%

    21 Iunie, Vineri

    Timp Temperatura Precipitaţii Vânt Presiune Umiditate
    00:00 +20°C° 0.1 mm 1 m/s 730 mmHg 88%
    01:00 +20°C° 0.1 mm 1 m/s 730 mmHg 89%
    02:00 +20°C° 0 mm 1 m/s 730 mmHg 89%
    03:00 +19°C° 0 mm 1 m/s 730 mmHg 90%
    04:00 +19°C° 0 mm 1 m/s 730 mmHg 90%
    05:00 +21°C° 0 mm 1 m/s 730 mmHg 86%
    06:00 +22°C° 0 mm 1 m/s 730 mmHg 81%
    07:00 +24°C° 0 mm 1 m/s 730 mmHg 77%
    08:00 +26°C° 0 mm 1 m/s 730 mmHg 70%
    09:00 +27°C° 0 mm 1 m/s 731 mmHg 63%
    10:00 +29°C° 0 mm 1 m/s 731 mmHg 55%
    11:00 +29°C° 0.3 mm 1 m/s 731 mmHg 55%
    12:00 +30°C° 0.3 mm 1 m/s 730 mmHg 54%
    13:00 +30°C° 0.3 mm 1 m/s 730 mmHg 53%
    14:00 +29°C° 1.1 mm 2 m/s 730 mmHg 59%
    15:00 +28°C° 1.1 mm 2 m/s 730 mmHg 65%
    16:00 +27°C° 1.1 mm 2 m/s 730 mmHg 71%
    17:00 +25°C° 4.4 mm 2 m/s 730 mmHg 78%
    18:00 +23°C° 4.4 mm 2 m/s 729 mmHg 86%
    19:00 +20°C° 4.4 mm 2 m/s 729 mmHg 94%
    20:00 +21°C° 0.5 mm 1 m/s 730 mmHg 92%
    21:00 +21°C° 0.5 mm 1 m/s 730 mmHg 90%
    22:00 +21°C° 0.5 mm 1 m/s 730 mmHg 88%
    23:00 +21°C° 0.1 mm 1 m/s 730 mmHg 88%

    22 Iunie, Sâmbătă

    Timp Temperatura Precipitaţii Vânt Presiune Umiditate
    00:00 +20°C° 0.1 mm 1 m/s 730 mmHg 89%
    01:00 +20°C° 0.1 mm 1 m/s 730 mmHg 89%
    02:00 +20°C° 0 mm 1 m/s 730 mmHg 89%
    03:00 +19°C° 0 mm 1 m/s 730 mmHg 89%
    04:00 +17°C° 0 mm 0 m/s 730 mmHg 90%
    05:00 +19°C° 0 mm 0 m/s 730 mmHg 86%
    06:00 +20°C° 0 mm 0 m/s 730 mmHg 83%
    07:00 +21°C° 0 mm 0 m/s 730 mmHg 80%
    08:00 +23°C° 0.7 mm 0 m/s 730 mmHg 76%
    09:00 +24°C° 0.7 mm 0 m/s 730 mmHg 72%
    10:00 +25°C° 0.7 mm 0 m/s 730 mmHg 68%
    11:00 +26°C° 0.5 mm 0 m/s 730 mmHg 63%
    12:00 +29°C° 0.5 mm 1 m/s 730 mmHg 59%
    13:00 +30°C° 0.5 mm 1 m/s 730 mmHg 54%
    14:00 +29°C° 0.5 mm 1 m/s 730 mmHg 57%
    15:00 +29°C° 0.5 mm 1 m/s 729 mmHg 59%
    16:00 +29°C° 0.5 mm 1 m/s 729 mmHg 62%
    17:00 +27°C° 0.8 mm 1 m/s 729 mmHg 68%
    18:00 +26°C° 0.8 mm 1 m/s 729 mmHg 73%
    19:00 +24°C° 0.8 mm 1 m/s 729 mmHg 79%
    20:00 +23°C° 0.6 mm 1 m/s 729 mmHg 81%
    21:00 +22°C° 0.6 mm 1 m/s 729 mmHg 83%
    22:00 +21°C° 0.6 mm 1 m/s 729 mmHg 86%
    23:00 +20°C° 0 mm 1 m/s 729 mmHg 88%
    Arată mai mult